Wind_Speed
46 45 45 44 44 44 43 43 44 44 45 46 47 47 47 46 46 46 46 46 45 44 40 35 28 22 17 15 16 17 17 17 18 19 20 22 26 30 32 35 36 38 40 42 44 48 51 54 57 59 60 60 59 58 55 51 47 43 42 42 41 40 38 37 35 34 35 35 35 35 36 36 36 36 37 37 38 39 40 40 40 39 39 40 41 42
45 45 44 43 43 43 43 43 43 43 44 45 46 46 46 45 45 44 44 44 44 42 37 31 24 18 13 13 14 15 14 16 19 22 26 31 36 39 43 45 47 48 49 50 52 53 55 57 59 60 60 60 59 59 58 55 51 48 46 45 43 41 39 37 35 34 35 35 35 35 35 35 35 35 36 37 39 40 40 39 39 38 39 40 41 42
44 44 43 43 42 42 42 42 42 42 42 43 44 45 44 44 43 42 42 42 42 39 34 27 20 14 11 12 13 14 14 18 23 29 35 41 46 50 52 54 55 56 56 56 56 56 57 57 57 57 57 56 56 56 56 56 54 51 49 45 42 40 38 36 35 35 35 35 35 35 35 35 35 36 37 38 40 40 39 39 38 39 39 40 41 42
43 43 42 42 41 41 41 41 41 41 41 42 42 43 43 42 41 41 41 40 40 37 31 23 16 11 9 12 13 14 16 23 30 38 45 51 55 58 59 59 59 59 59 58 57 57 56 55 54 53 51 50 50 49 49 49 49 48 46 43 40 38 36 36 36 36 36 36 36 36 36 36 37 38 39 40 40 39 38 38 38 39 40 40 41 41
42 42 41 41 41 40 40 40 39 39 39 40 40 41 41 40 39 39 38 38 37 34 27 20 13 9 10 13 15 16 21 30 39 47 53 58 60 61 61 60 59 59 58 56 55 54 53 52 51 50 49 47 46 45 44 43 42 42 41 40 38 37 36 37 38 38 37 37 37 37 37 38 39 40 41 41 40 39 38 38 39 39 40 40 40 41
41 41 41 40 40 39 39 39 38 38 38 38 38 38 38 38 37 37 36 36 35 31 24 16 10 8 11 15 18 22 29 39 48 54 58 59 60 60 60 59 58 57 55 53 52 50 49 48 48 47 47 47 46 45 43 42 40 39 39 38 38 37 37 38 39 40 39 39 39 39 39 39 40 41 42 42 41 40 39 39 40 40 40 40 40 41
41 40 40 39 39 38 38 38 37 37 37 37 37 36 36 35 35 35 34 34 32 27 20 13 9 9 14 18 23 29 37 47 54 57 58 59 58 58 58 57 55 54 52 50 48 46 45 44 43 43 44 44 44 43 42 41 39 38 38 37 36 35 36 37 39 40 41 40 40 40 40 40 41 43 43 43 42 41 41 40 41 41 41 42 42 42
40 40 39 39 38 37 37 36 36 36 35 35 35 34 33 33 33 32 32 32 29 24 17 11 9 11 17 23 29 36 44 51 56 57 57 57 56 55 55 53 52 50 48 46 44 43 41 39 38 38 38 39 39 38 37 36 36 35 35 34 33 32 33 35 37 39 40 40 40 40 41 42 43 44 45 44 44 43 42 42 42 42 43 44 44 45
39 39 39 38 37 37 36 36 35 34 34 33 33 32 31 30 30 30 30 29 26 21 15 10 9 14 21 28 35 42 49 53 56 56 56 55 54 53 52 50 49 47 45 43 42 41 39 37 36 34 34 33 33 32 32 31 31 32 31 30 30 30 31 33 36 37 38 39 39 40 41 42 43 44 45 45 45 44 44 43 43 44 44 45 46 47
39 38 38 37 37 36 35 34 34 33 32 31 30 29 28 26 26 27 27 26 23 19 13 9 10 17 26 33 41 47 51 54 55 55 54 53 52 51 50 48 46 44 43 42 42 41 40 38 35 33 31 30 29 29 28 28 29 29 28 28 28 28 30 32 35 37 38 39 40 41 42 43 44 44 45 45 46 46 45 45 45 46 46 47 48 49
38 38 37 37 36 35 34 33 33 32 31 30 28 27 25 23 22 23 24 23 21 16 11 8 12 21 30 38 45 50 52 54 54 54 53 52 50 49 47 46 44 43 42 41 42 42 42 39 36 32 30 29 29 28 28 28 28 28 29 28 27 28 30 33 36 38 40 41 43 44 45 45 45 46 46 47 47 47 48 48 48 48 49 50 50 51
37 37 37 36 35 34 34 32 32 31 29 28 27 25 22 20 19 19 20 20 18 14 9 8 14 24 34 43 48 51 52 52 52 52 51 49 48 46 45 43 42 41 41 40 42 43 44 42 38 34 32 31 31 32 31 31 31 31 31 31 30 30 32 35 37 40 42 43 45 46 47 48 48 49 49 49 50 50 50 50 50 51 52 52 53 53
37 37 36 35 35 34 33 32 30 29 28 27 25 22 19 17 16 16 17 16 14 11 7 8 16 27 38 46 50 52 52 52 51 50 49 47 46 44 43 42 41 40 40 39 41 42 44 43 40 37 36 35 34 34 34 33 33 33 32 32 31 31 33 36 39 41 42 44 45 46 47 47 48 49 49 49 50 50 51 51 52 53 54 55 56 56
37 36 36 35 34 33 32 31 29 28 27 25 23 21 17 14 12 12 13 13 11 8 5 9 17 29 40 48 51 52 52 51 50 48 47 45 44 43 42 41 41 41 40 39 40 41 43 42 39 37 35 35 35 35 35 34 33 32 31 30 29 30 32 35 38 40 41 42 43 44 45 45 46 46 46 47 48 49 50 52 53 55 56 57 58 58
37 36 35 35 34 33 32 30 29 27 26 24 22 20 16 12 9 8 9 9 8 5 4 10 19 30 42 49 52 52 51 50 49 48 46 44 43 42 42 41 41 41 41 40 40 41 41 39 36 34 32 33 33 34 34 33 32 30 29 29 28 29 31 33 35 38 39 41 42 43 43 44 44 44 45 46 47 49 51 53 54 56 57 58 59 59
37 36 35 35 34 33 31 30 28 26 24 23 21 18 14 10 6 5 6 6 5 2 4 11 20 31 42 50 53 52 51 50 49 47 46 44 43 42 42 42 41 41 41 41 41 41 40 37 33 31 30 31 32 33 33 32 31 30 29 29 30 30 32 34 36 38 40 41 42 43 44 44 44 45 46 47 49 51 52 54 56 57 58 59 60 60
37 36 36 35 34 33 31 30 28 26 24 22 20 17 14 9 5 4 4 5 3 2 6 13 22 32 43 50 53 53 51 50 48 47 46 44 43 43 43 42 42 41 41 41 42 41 40 37 33 30 29 30 31 32 33 32 32 31 31 31 32 33 34 36 38 40 41 43 44 45 46 46 47 48 49 50 52 53 54 56 57 58 59 60 59 59
37 36 36 35 34 33 32 30 28 25 23 21 19 16 13 9 6 6 6 6 5 6 8 14 23 33 44 51 53 53 51 50 48 47 46 45 44 44 44 43 42 41 41 40 41 41 41 38 35 32 30 29 30 32 33 33 33 33 34 34 35 36 38 39 41 42 43 44 46 47 48 49 50 51 53 54 55 55 56 57 57 58 59 58 58 58
37 37 36 35 34 33 32 30 28 26 23 20 18 16 13 10 8 8 9 9 9 9 11 16 24 34 44 51 54 53 52 50 49 47 46 46 45 45 45 44 43 42 41 40 40 41 41 40 39 36 34 32 31 32 34 35 36 36 37 38 39 40 41 42 43 44 45 46 47 49 50 52 53 54 55 55 56 56 56 56 57 57 57 57 56 56
37 37 36 36 35 34 32 31 29 26 23 21 18 16 13 11 9 11 12 12 12 13 15 18 25 34 44 51 54 53 52 50 49 48 47 46 46 46 46 45 44 43 41 40 40 41 42 42 42 40 39 36 35 34 34 35 37 38 39 40 41 43 44 45 46 46 47 48 49 50 52 53 55 56 56 56 56 56 56 56 56 56 56 56 56 56
37 37 36 36 35 34 33 31 29 27 24 22 19 16 14 12 11 13 15 16 16 16 18 21 26 35 44 50 53 53 51 50 49 48 48 47 47 46 46 46 45 43 42 41 41 41 42 43 43 43 43 42 40 38 36 36 37 38 39 41 42 44 45 46 47 48 49 50 51 52 53 55 56 57 57 57 56 56 56 55 55 56 56 56 57 57
37 37 37 36 35 34 33 32 30 28 25 23 20 17 15 13 13 15 17 19 20 20 21 24 28 35 44 49 52 52 51 50 49 48 48 48 47 47 47 46 45 44 42 42 42 42 43 44 44 45 45 46 45 44 42 40 40 40 40 41 43 44 46 47 49 50 51 52 53 54 55 56 57 58 58 58 57 57 56 56 56 56 57 57 57 58
38 37 37 36 36 35 33 32 31 29 26 24 21 18 16 14 14 16 19 22 23 24 25 27 31 36 43 48 51 52 50 49 49 48 48 47 47 47 47 46 45 44 43 43 43 43 44 45 45 46 46 47 47 47 47 46 45 45 44 45 45 46 47 49 50 51 52 54 55 56 57 57 58 58 59 58 58 58 57 57 57 57 57 58 58 58
38 38 37 37 36 35 34 33 31 29 27 25 22 20 17 16 15 17 21 24 26 27 28 30 33 37 42 47 50 50 50 49 48 47 47 47 47 47 47 46 46 45 44 44 44 45 45 46 47 47 48 48 48 48 48 48 49 49 49 49 49 50 50 51 52 53 54 55 56 57 58 58 59 59 59 59 59 58 58 58 58 58 58 58 58 58
38 38 38 37 36 35 34 33 32 30 28 26 24 22 19 17 17 18 22 26 28 30 31 33 35 38 42 46 49 50 49 48 47 46 46 46 46 46 47 47 46 45 45 45 45 46 47 47 48 49 49 49 49 49 49 49 49 49 50 51 51 52 53 54 54 55 56 57 58 58 59 59 59 59 59 59 59 59 59 59 59 59 59 59 58 58
39 38 38 37 37 36 35 34 32 31 29 27 25 23 21 19 19 19 22 27 30 33 34 36 37 40 43 46 48 49 49 48 47 46 46 45 45 45 46 47 47 46 46 46 46 47 47 48 49 49 50 51 51 51 50 50 50 50 50 51 51 52 53 54 55 56 57 58 58 59 59 59 59 59 59 60 60 60 60 61 61 60 60 60 59 59
39 39 38 38 37 36 35 34 33 32 30 29 27 25 23 21 20 21 22 27 31 35 37 39 40 42 44 47 49 50 50 49 48 47 46 46 45 45 46 47 47 47 47 47 47 48 48 49 50 50 51 52 52 52 52 52 52 51 51 51 52 52 53 54 55 56 57 58 58 59 59 59 59 59 59 60 60 61 61 61 62 61 61 61 60 60
40 39 39 38 38 37 36 35 34 33 32 30 29 27 25 23 22 22 23 26 31 36 39 41 43 44 46 47 49 51 51 51 50 48 47 47 46 46 46 47 48 48 48 48 48 49 49 50 51 51 52 53 54 54 54 55 54 54 54 54 54 54 54 54 55 56 57 57 58 59 59 59 59 59 59 59 60 60 61 61 62 62 62 62 61 61
40 40 39 39 38 37 37 36 35 34 33 32 30 29 27 25 25 24 24 26 30 35 40 43 45 46 48 49 51 52 53 53 52 51 50 49 48 48 48 48 48 49 49 49 49 49 50 51 52 52 53 54 55 55 56 56 56 56 56 56 56 56 56 56 56 56 57 58 58 59 59 59 59 59 59 59 59 60 60 61 61 61 62 62 62 62
41 40 40 39 39 38 37 37 36 35 34 33 32 31 29 28 27 26 26 27 30 35 40 44 46 48 50 51 52 53 54 54 54 54 53 52 51 50 49 49 50 50 51 51 51 51 51 52 52 53 54 55 55 56 57 58 58 58 58 58 58 58 58 58 58 58 58 58 59 59 59 60 59 59 59 59 59 60 60 60 60 61 61 61 62 62
41 41 40 40 39 39 38 37 37 36 35 34 33 32 31 30 29 28 28 28 30 33 38 43 47 50 51 53 53 54 55 56 56 56 55 54 54 53 52 51 51 52 53 53 53 53 53 53 54 54 55 55 56 57 58 59 59 60 60 61 61 61 60 60 60 60 60 60 60 60 60 60 60 60 60 60 60 60 60 60 60 60 61 61 61 61
42 42 41 40 40 39 39 38 38 37 36 36 35 34 33 32 31 30 29 30 31 33 37 42 46 50 52 54 56 56 57 57 58 58 58 57 57 56 55 54 54 54 54 55 55 56 56 56 56 56 56 56 57 58 59 59 60 61 62 62 62 63 63 63 62 62 62 62 62 62 62 62 62 62 62 61 61 61 61 61 61 61 61 61 61 61
43 42 42 41 41 40 39 39 38 38 37 37 36 35 35 34 33 32 31 31 32 33 36 40 45 49 53 55 57 58 59 59 59 59 59 59 59 59 58 57 56 56 56 56 57 57 58 58 58 58 58 58 58 59 60 60 61 62 62 63 64 64 64 64 64 64 64 64 64 63 63 63 63 63 63 63 63 62 62 62 61 61 61 61 61 61
43 43 42 42 41 41 40 40 40 39 39 38 37 37 36 36 35 34 33 32 33 34 36 39 43 48 52 55 58 59 60 61 61 61 61 61 61 61 61 60 59 59 58 58 58 58 59 60 60 60 60 60 60 61 61 62 62 63 64 64 65 65 66 66 66 66 66 66 66 65 65 65 65 65 64 64 64 64 63 63 63 62 62 62 62 62
44 44 43 43 42 42 41 41 40 40 40 39 39 38 38 37 36 36 35 34 34 34 36 38 41 45 50 54 58 60 61 62 62 63 63 63 63 63 63 63 63 62 61 60 60 60 60 61 61 62 62 62 62 63 63 63 64 65 65 66 66 67 67 67 67 68 68 68 67 67 67 67 66 66 66 66 66 65 65 65 64 64 63 63 63 63
45 44 44 43 43 42 42 42 41 41 41 40 40 39 39 38 38 37 36 36 35 35 36 37 40 43 47 52 56 60 62 63 64 64 64 65 65 65 65 65 65 65 64 63 63 63 62 62 63 63 64 64 64 65 65 65 66 66 66 67 67 68 68 69 69 69 69 69 69 69 68 68 68 68 68 68 68 67 67 67 66 66 66 65 65 65
46 45 45 44 44 43 43 43 42 42 42 41 41 40 40 40 39 38 38 37 36 36 36 37 39 41 45 49 54 58 62 64 65 66 66 66 66 66 66 67 67 67 67 67 66 66 65 65 65 65 65 65 66 66 67 67 67 67 68 68 69 69 70 70 70 70 70 70 70 70 70 69 69 69 69 69 69 69 69 69 68 68 68 67 67 67
47 46 46 45 45 44 44 44 43 43 43 42 42 41 41 40 40 39 39 38 37 37 36 37 38 40 42 46 50 55 59 63 65 66 67 68 68 68 68 68 68 69 69 69 69 68 68 67 67 67 67 67 68 68 68 68 69 69 70 70 70 71 71 72 72 72 72 72 72 71 71 71 71 70 70 71 71 71 71 71 70 70 70 70 69 69
47 47 47 46 46 45 45 45 44 44 44 43 43 42 42 41 41 40 40 39 38 37 37 37 37 39 41 43 47 51 55 60 63 66 68 68 69 69 69 69 69 70 70 71 71 71 70 70 70 70 70 69 70 70 70 70 70 71 71 71 72 72 72 73 73 73 73 73 73 73 73 73 72 72 72 72 72 72 72 72 72 72 72 72 71 71
48 48 48 47 47 47 46 46 45 45 44 44 43 43 42 42 41 41 40 39 39 38 37 37 37 38 39 41 44 48 52 56 60 64 66 68 69 70 70 70 71 71 71 72 72 72 72 72 72 72 72 72 72 72 72 72 72 72 73 73 73 73 74 74 74 75 75 75 75 75 75 75 74 74 74 74 74 74 74 74 74 74 74 73 73 73
49 48 48 48 48 48 47 47 46 46 45 45 44 43 43 42 42 41 40 39 39 38 38 37 37 37 38 39 41 44 48 52 56 59 63 66 69 70 71 72 72 72 73 73 73 74 74 74 74 74 74 74 74 74 74 74 74 74 74 74 75 75 75 75 76 76 76 76 76 76 77 76 76 76 76 76 76 76 76 76 76 76 75 75 75 74
49 49 49 49 49 48 48 48 47 46 46 45 44 44 43 42 42 41 40 40 39 38 37 37 37 37 37 38 39 42 45 48 52 55 59 63 66 69 71 72 73 73 74 74 75 75 75 75 76 75 76 76 75 75 75 76 76 76 76 76 76 77 77 77 77 77 77 77 78 78 78 78 78 78 78 78 78 78 78 78 78 78 77 77 77 77
50 50 50 50 50 49 49 48 48 47 46 45 45 44 43 42 42 41 40 40 39 38 37 37 37 36 37 37 38 40 42 45 49 52 56 60 63 67 69 72 73 74 75 75 76 76 77 77 77 77 77 77 77 77 77 77 77 77 77 77 77 77 77 78 78 78 78 78 79 79 79 79 79 79 79 79 79 80 80 80 80 80 80 79 79 79
50 50 51 51 51 50 50 49 48 47 46 45 45 44 43 42 42 41 40 39 39 38 37 37 36 36 36 37 38 39 41 43 46 50 54 57 60 64 67 70 72 74 75 76 76 77 77 78 78 78 79 79 78 78 78 78 78 78 78 78 78 78 78 79 79 79 79 79 79 80 80 80 80 80 80 80 80 81 81 81 81 81 81 81 81 81
51 51 51 52 52 51 50 50 48 47 46 45 44 43 43 42 41 41 40 39 39 38 37 37 36 37 37 37 38 39 40 42 45 48 51 54 58 61 64 67 69 72 74 75 76 77 78 78 79 79 80 80 80 80 80 80 80 80 80 80 80 80 80 80 80 80 80 80 80 80 81 81 81 81 81 81 81 81 81 81 81 82 82 82 82 82
51 52 52 53 52 52 51 50 48 47 46 45 44 43 42 41 41 40 40 39 39 38 37 37 37 37 37 38 39 39 41 42 44 46 49 52 55 58 61 63 66 69 71 73 75 76 78 78 79 80 80 80 81 81 81 82 82 82 82 82 82 82 82 82 82 81 82 82 82 82 82 82 81 81 81 82 82 82 82 82 82 82 82 82 82 83
52 52 53 53 53 53 51 50 48 47 46 44 43 42 42 41 40 40 39 39 39 38 38 38 38 38 38 39 39 40 41 42 43 45 46 49 51 54 57 60 63 66 68 70 72 74 76 77 79 80 80 81 81 82 83 83 83 83 83 84 84 83 83 83 83 83 83 83 83 83 83 83 83 83 83 83 83 83 83 82 82 82 82 82 82 83
52 53 54 54 54 53 52 50 48 47 45 44 43 42 41 41 40 40 39 39 39 39 39 39 39 39 39 40 40 41 41 42 42 43 45 46 48 51 54 57 59 62 65 67 69 71 73 75 77 78 79 80 81 82 83 84 84 84 85 85 85 85 85 85 85 85 85 85 85 85 85 85 85 85 85 85 84 84 84 84 83 83 83 83 83 82
53 54 55 55 54 53 52 50 48 47 45 44 43 42 41 41 40 40 40 40 39 40 40 40 40 40 40 40 40 41 41 42 42 43 44 45 46 48 50 53 56 59 61 64 66 69 71 73 74 76 78 79 80 81 83 83 84 85 85 86 86 86 87 87 87 87 87 87 87 87 87 87 87 87 87 86 86 86 86 85 85 85 84 84 83 83
54 54 55 55 54 53 52 50 48 46 45 44 43 42 41 41 40 40 40 40 40 40 41 41 41 41 41 41 41 41 41 42 42 43 43 44 45 46 48 50 52 55 58 60 63 65 68 70 72 74 75 77 78 80 81 82 84 84 85 86 86 87 87 88 88 88 88 88 88 88 88 88 88 88 88 88 88 88 88 88 87 87 86 86 85 85
54 55 55 55 54 53 52 50 48 46 45 44 43 42 42 41 41 41 41 41 41 41 41 42 42 42 42 42 42 42 42 43 43 44 44 45 45 46 47 49 50 52 54 57 59 62 65 67 69 71 73 75 76 78 79 81 82 83 84 85 86 87 87 88 89 89 89 89 90 90 90 90 90 90 90 90 90 90 90 90 89 89 89 88 87 87
Wind_Direction
307 308 309 310 311 312 313 315 316 318 319 320 321 322 324 325 325 325 326 328 330 332 334 334 335 338 347 2 13 19 24 37 51 64 77 89 96 100 103 106 109 113 116 120 123 126 128 130 131 133 134 135 136 136 134 133 137 148 163 179 191 197 202 204 208 211 214 215 214 213 212 210 209 209 211 213 216 219 221 223 225 227 230 232 234 235
307 308 309 310 311 312 314 315 317 318 320 321 322 323 325 326 326 326 327 329 332 335 336 336 338 344 358 17 28 33 41 59 74 85 95 100 103 105 106 108 109 111 113 116 119 122 124 127 129 131 134 137 138 138 137 139 147 158 171 182 190 195 198 203 207 211 213 213 211 209 207 206 205 207 210 214 217 220 222 224 226 229 231 233 235 236
307 308 309 310 311 312 314 315 317 319 321 322 323 324 325 326 327 327 328 331 334 337 339 339 342 352 14 35 44 50 63 82 93 100 105 107 107 107 107 108 108 110 111 113 116 119 121 125 128 131 135 138 141 141 142 147 154 163 173 181 187 191 196 202 207 210 210 209 207 204 202 203 204 207 211 215 219 221 223 226 228 230 232 234 235 237
307 308 309 310 311 312 314 316 317 319 321 323 324 325 326 327 327 328 330 332 336 340 342 343 348 5 36 54 61 69 86 99 105 109 111 110 109 108 107 108 108 109 111 113 116 118 122 125 128 132 135 139 141 144 146 150 156 163 171 178 184 190 196 203 207 208 207 205 203 201 201 202 206 209 213 217 220 222 224 226 227 229 231 233 235 237
306 307 308 309 311 312 314 316 318 320 322 324 325 326 327 327 328 329 331 334 338 342 346 349 358 25 61 74 78 88 102 110 113 114 113 111 110 109 108 108 109 110 112 115 118 120 123 127 130 133 136 139 142 144 147 152 157 164 170 177 184 191 199 204 205 205 203 203 202 202 203 205 209 212 216 218 220 222 223 225 226 228 230 233 235 237
306 306 307 309 310 312 314 315 318 320 322 324 326 327 327 327 328 330 332 336 340 345 351 357 14 51 82 91 96 104 113 117 118 117 115 113 111 110 110 110 110 111 113 116 118 121 125 128 132 135 138 141 143 145 149 154 159 166 173 180 186 193 199 203 204 204 203 204 205 207 209 211 213 216 218 220 221 222 223 225 226 228 230 232 235 237
305 306 307 308 310 311 313 315 318 320 323 325 327 328 328 328 328 330 333 337 342 347 356 9 36 76 100 105 110 116 121 122 121 119 116 114 113 113 112 111 111 112 113 115 118 121 124 128 133 137 140 142 144 147 151 156 162 168 175 182 188 194 199 202 204 205 206 208 210 212 215 217 219 221 222 222 223 223 225 226 228 229 231 232 234 236
304 305 306 308 309 311 313 315 317 320 322 325 327 329 329 329 329 331 334 339 344 350 360 19 58 95 112 115 119 123 125 125 123 120 118 117 116 115 115 114 114 114 115 116 118 120 124 128 132 136 140 142 144 147 151 156 163 169 176 183 189 195 200 203 205 207 209 211 213 215 217 220 222 224 225 225 225 226 226 227 229 231 232 233 234 235
303 304 306 307 309 310 312 315 317 319 322 325 328 329 330 330 330 331 334 339 345 352 4 30 78 109 121 123 126 128 128 127 125 123 121 120 119 119 119 119 119 119 119 119 121 123 125 128 132 136 140 143 145 148 152 158 164 170 177 183 190 197 202 205 206 208 210 212 213 214 216 219 221 224 225 226 226 227 227 228 229 231 232 234 235 235
302 303 305 306 308 310 312 314 316 319 322 325 327 330 330 330 330 331 335 340 345 354 8 43 95 119 127 129 130 131 130 128 127 125 125 124 124 124 124 124 124 124 124 125 126 127 128 130 134 138 144 148 151 154 157 161 167 172 178 185 192 199 204 206 206 207 208 210 210 211 212 214 217 220 222 224 225 225 226 227 228 229 231 232 234 235
301 303 304 305 307 309 311 313 315 318 321 324 327 329 330 330 330 332 334 339 346 356 15 59 108 127 133 134 134 133 132 130 128 128 128 128 128 128 128 129 129 129 130 131 132 132 132 133 135 141 148 155 159 161 164 167 171 176 181 187 194 199 203 204 205 206 207 208 208 209 209 210 212 215 218 220 222 223 224 225 227 228 230 231 233 234
300 302 303 304 306 308 309 311 314 317 320 323 326 328 329 329 330 331 334 339 346 358 24 77 119 133 137 138 137 136 133 131 130 129 130 130 131 131 132 133 134 135 136 137 138 138 137 136 138 145 154 159 163 166 169 173 177 180 184 188 192 196 200 202 204 206 207 208 209 209 209 210 212 214 217 219 221 223 224 226 227 228 230 232 233 234
299 301 302 303 305 306 308 310 313 315 318 321 324 326 327 328 329 330 332 337 345 0 35 95 126 138 142 142 141 138 135 132 131 131 132 132 133 134 136 137 138 139 141 142 143 143 141 140 143 151 160 164 168 171 174 178 181 184 187 189 192 195 199 202 205 207 209 210 212 213 214 215 217 219 221 223 225 226 227 228 229 230 232 233 234 235
298 299 301 302 303 305 307 309 311 313 316 319 322 324 325 325 326 328 329 334 343 1 54 111 133 142 146 146 144 141 138 135 134 134 134 135 136 137 139 140 142 143 145 146 148 147 146 146 149 157 164 169 173 176 179 182 185 188 190 192 194 197 200 203 206 209 212 214 215 217 219 221 223 225 227 229 230 230 231 231 231 232 234 235 236 237
297 298 299 301 302 303 305 307 309 311 313 316 318 321 321 319 319 320 321 326 336 2 85 126 140 147 150 150 148 145 142 140 138 138 138 139 140 141 142 144 145 146 148 149 150 150 149 150 154 161 168 172 176 179 182 185 187 191 193 195 196 199 201 204 207 209 212 214 216 218 221 223 225 228 229 231 232 232 232 233 233 234 236 237 238 239
296 297 298 300 301 302 303 305 306 308 310 312 315 317 316 310 305 303 302 308 318 358 124 139 146 151 154 154 152 149 146 145 144 143 143 144 144 145 146 147 148 149 151 151 152 152 151 153 157 163 170 174 178 181 184 187 189 192 194 195 197 199 201 203 205 207 209 212 214 217 219 221 224 226 227 229 230 231 232 233 234 235 237 238 239 240
295 296 298 298 300 300 302 303 304 305 307 309 310 311 309 299 280 263 263 269 261 195 153 149 152 155 157 158 157 154 151 150 149 149 148 148 148 149 149 150 151 153 154 155 155 154 154 155 159 165 171 176 179 182 185 188 190 192 194 195 197 199 201 202 204 205 207 209 211 213 215 217 220 222 224 225 227 228 230 232 234 235 237 238 240 241
295 296 297 298 298 299 300 301 302 302 303 304 305 305 302 289 259 231 226 229 219 192 168 159 157 159 160 161 161 159 156 155 154 153 153 152 152 152 153 153 154 156 157 159 159 158 158 159 162 167 173 178 181 184 186 188 190 192 194 195 197 199 201 202 203 204 205 206 208 210 212 214 216 219 221 223 225 227 229 231 233 235 237 238 240 241
294 295 296 297 298 298 299 299 299 300 300 300 300 299 295 279 246 217 209 212 207 193 176 167 163 162 163 164 164 162 160 159 158 157 156 156 155 156 156 157 157 159 161 163 164 164 164 164 166 169 174 179 184 186 188 189 191 193 195 197 198 200 201 202 203 203 204 205 207 209 210 213 215 218 221 223 225 227 229 231 233 236 237 239 240 241
293 294 295 296 296 297 297 297 298 297 297 296 295 292 287 271 240 213 202 204 203 194 182 173 168 166 166 167 167 166 164 163 162 161 160 159 159 159 160 161 161 162 164 166 169 170 170 170 170 172 175 180 185 189 192 193 194 196 198 200 201 202 203 203 204 205 206 207 208 210 212 214 216 219 221 224 226 228 230 233 235 237 239 240 241 242
292 293 294 295 295 296 296 296 296 295 294 293 290 286 280 265 239 214 201 200 200 195 186 178 173 170 169 169 169 169 167 166 165 165 164 163 163 164 164 165 165 166 168 170 172 175 176 176 176 176 178 180 184 188 194 197 199 201 202 204 205 206 206 206 207 207 208 209 211 212 214 216 218 221 223 225 227 229 232 234 236 238 239 241 242 243
291 292 293 294 294 294 294 294 294 293 292 290 287 282 275 262 239 217 203 199 198 196 190 183 177 174 172 172 172 171 170 170 169 168 168 167 167 168 169 169 170 171 172 174 176 178 180 181 181 181 182 182 184 186 191 195 200 204 206 208 210 211 211 211 211 211 211 212 213 215 216 218 220 222 224 226 228 230 232 234 236 238 240 242 243 244
290 291 292 293 293 293 293 293 292 291 290 287 284 279 271 260 241 221 206 199 198 197 193 187 182 178 176 175 175 174 174 173 173 173 172 172 172 173 173 174 174 175 176 178 180 182 183 185 186 186 187 187 187 188 190 193 197 201 205 208 211 213 214 214 214 215 215 216 217 218 219 221 223 224 226 227 229 231 232 234 236 238 240 242 244 246
289 290 291 292 292 292 292 291 290 289 287 285 281 276 269 259 244 225 211 202 200 198 196 191 186 183 180 179 178 178 178 177 177 177 177 177 177 177 178 178 179 180 181 182 184 185 187 188 189 191 191 192 193 193 193 194 196 199 202 205 208 211 213 215 216 217 218 219 220 221 222 224 225 227 228 229 231 232 233 235 237 239 241 243 245 246
289 289 290 290 291 291 290 289 288 287 285 282 279 274 268 259 246 230 216 206 202 199 198 195 191 188 185 184 183 182 182 182 182 182 183 183 183 183 183 183 183 184 185 186 188 189 190 192 193 194 195 196 197 198 199 199 200 201 203 205 207 209 211 213 215 216 218 220 221 223 224 226 227 229 230 231 232 233 235 236 237 239 241 242 244 246
288 288 289 289 290 289 289 288 287 285 283 280 277 273 267 259 249 235 221 210 204 201 200 198 195 192 189 188 188 187 187 187 187 188 188 188 188 188 188 188 188 188 189 190 191 192 194 195 196 198 199 200 201 202 203 204 205 206 207 208 210 211 213 214 215 217 218 220 222 223 225 227 228 230 231 232 233 234 235 236 237 239 240 242 243 245
287 287 288 288 288 288 287 286 285 283 281 279 275 271 266 259 250 239 227 215 207 203 201 201 199 197 194 193 192 192 192 192 193 193 193 194 194 194 194 193 193 192 193 193 194 196 197 198 199 200 202 203 204 205 206 207 208 210 211 212 214 215 216 217 218 219 220 222 223 224 225 227 228 230 231 232 233 234 235 236 237 238 239 241 242 244
286 287 287 287 287 287 286 285 283 282 280 277 274 270 265 259 251 243 232 221 212 207 204 203 202 200 199 197 197 196 196 197 198 198 198 198 199 199 199 198 198 197 197 197 198 199 200 201 202 203 204 206 207 208 209 210 211 212 214 215 216 218 219 220 221 222 223 224 225 226 227 228 230 231 232 233 234 235 236 237 238 239 240 241 242 243
285 286 286 286 286 286 285 284 282 280 278 276 273 270 265 259 253 246 237 227 218 211 207 205 204 204 203 201 200 200 200 201 201 202 202 202 203 203 203 202 202 202 201 201 201 202 203 204 205 206 207 208 209 210 212 213 214 215 216 217 219 220 221 223 224 225 226 227 228 229 230 230 232 233 234 235 236 237 238 238 239 240 241 242 243 244
284 285 286 286 285 285 284 282 281 279 277 275 272 269 265 260 254 248 241 233 224 217 211 208 207 206 206 205 204 204 204 204 204 205 205 206 206 206 206 206 206 206 205 205 205 206 207 207 208 209 210 211 212 213 214 215 216 217 218 220 221 222 223 225 226 227 228 229 230 231 232 233 234 235 236 238 239 240 241 242 242 243 244 245 246 247
284 284 285 284 284 284 282 281 280 278 276 274 272 269 266 261 256 250 244 237 230 223 217 212 210 209 208 208 207 207 207 207 207 207 208 209 209 209 209 209 209 209 208 208 208 209 209 210 211 212 213 214 215 216 217 217 218 219 220 222 223 224 225 226 228 229 230 231 232 233 234 235 236 237 239 240 242 243 244 245 246 247 248 248 249 250
283 284 284 284 283 282 281 280 279 277 275 273 271 269 266 262 258 252 246 240 235 229 222 217 214 211 211 210 210 210 209 209 209 210 210 211 212 212 211 212 212 211 211 211 211 211 212 213 214 215 216 217 218 219 219 220 221 222 222 224 225 226 227 228 229 231 232 233 234 235 236 236 237 239 240 241 243 244 245 247 248 249 250 251 252 253
283 283 283 283 283 282 280 279 278 276 274 273 271 269 267 264 260 255 250 244 238 233 228 223 218 215 213 213 212 212 212 212 212 212 212 213 214 214 214 214 214 214 214 213 213 213 214 214 215 216 218 219 220 221 222 223 224 224 225 226 227 228 229 230 231 232 233 234 235 236 237 238 238 239 240 242 243 244 245 246 248 249 250 251 252 253
282 283 283 282 282 281 279 278 277 275 274 272 271 269 267 265 261 258 253 247 242 237 232 227 223 219 217 215 214 214 214 214 214 214 214 215 216 216 216 216 216 216 216 216 216 216 216 216 217 218 219 221 222 223 225 226 226 227 227 228 229 230 231 232 233 234 235 236 237 237 238 239 239 240 241 242 243 244 245 246 247 248 249 250 252 253
282 282 282 281 281 280 279 277 276 274 273 272 270 269 267 265 263 260 256 251 246 241 236 232 228 224 221 218 217 216 216 216 216 216 216 217 217 218 218 218 218 218 218 218 218 218 218 219 219 219 220 222 223 224 226 227 228 229 230 230 231 232 233 233 234 235 236 237 238 238 239 240 240 241 242 243 243 244 245 246 247 248 249 250 251 252
281 281 281 280 280 279 277 276 275 274 273 271 270 269 267 265 264 261 258 254 250 245 240 235 232 228 225 222 220 219 218 218 217 217 218 218 219 219 220 220 220 220 220 220 220 220 220 221 221 221 222 223 224 225 226 228 229 231 232 233 233 234 235 235 236 237 238 238 239 240 240 241 242 242 243 244 244 245 246 247 247 248 249 250 251 252
281 281 280 280 279 278 276 275 274 273 272 271 270 268 267 266 264 262 260 257 253 249 244 240 236 232 229 226 224 222 220 220 219 219 220 220 220 221 221 221 222 222 222 222 222 222 222 222 223 223 224 224 225 226 227 228 230 231 232 234 235 236 236 237 238 239 239 240 241 241 242 243 243 244 245 245 246 246 247 248 248 249 250 251 252 252
280 280 280 279 278 277 276 275 273 272 272 270 269 268 267 266 265 263 261 259 256 253 249 244 240 236 232 230 227 225 223 222 221 221 221 221 222 222 223 223 223 223 223 224 224 224 224 224 224 225 225 226 226 227 228 229 230 232 233 234 235 236 237 238 239 240 241 241 242 243 243 244 245 245 246 246 247 248 248 249 249 250 251 251 252 253
280 280 279 279 278 277 276 274 273 272 271 270 269 268 267 266 265 264 262 260 258 255 252 248 244 240 236 233 230 228 226 225 224 223 223 223 223 224 224 224 225 225 225 225 225 225 225 225 225 226 226 227 228 228 229 230 231 232 233 235 236 237 238 239 240 241 241 242 243 244 244 245 245 246 247 247 248 249 249 250 250 251 251 252 253 254
279 279 279 278 277 276 275 274 273 272 271 270 269 269 267 267 265 264 263 261 260 257 255 251 248 244 240 236 233 231 229 228 227 226 225 225 225 225 226 226 226 226 226 227 227 227 227 227 227 227 227 228 229 229 230 231 232 233 234 235 236 238 239 240 241 241 242 243 244 244 245 245 246 247 247 248 248 249 250 250 251 251 252 252 253 254
278 278 278 277 276 275 274 273 273 272 271 270 270 269 268 267 266 265 264 262 261 259 257 254 251 247 243 240 236 234 232 230 229 228 227 227 227 227 227 227 227 228 228 228 228 229 229 229 229 229 229 229 230 230 231 232 233 234 235 236 237 238 239 240 241 242 243 244 245 245 246 246 247 248 248 249 249 250 250 251 251 252 252 253 253 254
278 277 277 276 275 274 273 273 272 271 271 270 270 269 268 267 267 266 265 263 262 260 258 256 253 250 247 243 239 236 234 232 231 230 229 229 228 228 228 228 229 229 229 229 230 230 230 230 230 231 231 231 231 232 232 233 234 235 235 236 238 239 240 241 242 243 244 245 245 246 247 247 248 249 249 250 250 251 251 252 252 252 253 253 254 254
277 276 275 275 274 273 272 272 271 271 270 270 269 269 268 268 267 266 265 264 262 261 259 257 254 252 248 245 241 238 236 234 232 231 231 230 230 230 229 230 230 230 230 230 231 231 231 232 232 232 233 233 233 233 234 234 235 236 237 237 238 239 240 241 242 243 244 245 246 247 247 248 249 250 250 251 251 252 253 253 253 254 254 254 255 255
276 275 275 274 273 272 272 271 271 270 270 269 269 269 268 268 267 266 265 264 263 261 259 257 255 252 249 246 243 240 237 235 233 232 232 231 231 231 231 231 231 231 231 231 232 232 232 232 233 233 234 234 235 235 235 236 236 237 238 238 239 240 241 242 243 244 244 245 246 247 248 249 249 250 251 252 252 253 254 254 255 255 256 256 256 256
275 275 274 273 272 271 271 270 270 270 269 269 269 268 268 267 267 266 265 264 263 261 259 257 255 252 249 246 244 241 238 236 235 233 233 232 232 232 232 232 232 232 232 232 233 233 233 233 234 234 235 235 236 236 237 237 238 238 239 240 240 241 242 243 243 244 245 246 246 247 248 249 250 250 251 252 253 253 254 255 256 256 257 257 258 258
275 274 273 272 271 271 271 270 270 270 269 269 268 268 267 267 266 265 265 263 262 260 259 256 254 252 249 247 244 242 240 238 236 235 234 234 233 233 233 233 233 233 233 234 234 234 234 234 235 235 235 236 237 237 238 238 239 240 240 241 241 242 243 243 244 245 245 246 247 247 248 249 250 250 251 252 253 253 254 255 256 257 257 258 259 259
273 273 272 271 271 271 270 270 270 270 269 269 268 268 267 266 265 265 263 262 261 259 257 255 253 251 249 247 245 243 242 240 239 237 236 236 235 235 235 235 235 235 235 235 235 235 236 236 236 236 236 237 237 238 238 239 240 240 241 241 242 243 243 244 245 245 246 247 247 248 249 249 250 250 251 252 252 253 254 255 255 256 257 258 259 260
272 271 271 271 270 270 270 270 270 270 269 269 268 267 266 265 264 263 262 261 259 258 256 254 253 251 250 248 246 245 244 243 241 240 239 238 238 237 237 237 237 237 237 237 237 237 237 237 237 238 238 238 238 239 239 240 240 241 241 242 243 243 244 245 245 246 247 247 248 248 249 250 250 251 251 252 252 253 254 254 255 256 257 258 258 259
271 270 270 270 270 270 270 270 270 270 269 269 268 267 266 265 263 262 261 259 258 257 255 254 253 251 250 249 248 247 246 245 244 243 242 240 240 239 239 239 238 238 238 238 238 238 238 238 239 239 239 239 240 240 240 241 241 242 242 243 243 244 244 245 246 246 247 248 248 249 249 250 251 251 252 252 253 253 254 254 255 256 256 257 258 259
270 269 269 269 270 270 270 270 270 269 269 268 267 266 265 263 262 261 260 258 257 256 255 254 253 252 251 250 249 248 248 247 246 245 244 243 242 241 241 240 240 240 240 240 240 240 240 240 240 240 240 241 241 241 242 242 242 243 243 243 244 245 245 246 246 247 247 248 249 249 250 251 251 252 252 253 253 254 254 255 255 256 256 257 258 259
268 268 268 269 269 269 269 270 269 269 269 268 266 265 264 263 261 260 259 258 257 256 255 254 254 253 252 251 250 250 249 248 248 247 246 245 244 243 242 242 241 241 241 241 241 241 241 241 241 241 242 242 242 242 243 243 243 244 244 245 245 245 246 246 247 247 248 248 249 250 250 251 251 252 253 253 254 254 255 255 256 256 257 257 258 259
Height
10558 10557 10555 10553 10552 10550 10548 10546 10543 10541 10538 10535 10531 10528 10525 10523 10520 10516 10512 10509 10506 10503 10500 10496 10493 10490 10488 10485 10482 10480 10478 10475 10473 10472 10468 10466 10463 10462 10461 10461 10462 10464 10467 10470 10473 10477 10480 10485 10491 10497 10505 10512 10518 10524 10530 10536 10546 10558 10572 10582 10587 10587 10582 10580 10581 10583 10585 10587 10589 10590 10592 10593 10595 10597 10597 10598 10600 10602 10603 10603 10604 10606 10608 10608 10609 10610
10556 10555 10553 10552 10550 10548 10546 10544 10542 10540 10537 10533 10530 10527 10523 10521 10518 10515 10512 10508 10506 10503 10500 10497 10494 10492 10489 10487 10485 10483 10481 10478 10477 10476 10474 10472 10469 10468 10467 10467 10468 10471 10473 10477 10480 10485 10489 10493 10498 10504 10510 10515 10520 10524 10528 10537 10550 10562 10573 10580 10583 10581 10578 10578 10580 10583 10585 10586 10588 10590 10591 10592 10593 10595 10597 10599 10600 10600 10599 10600 10603 10605 10606 10606 10607 10608
10554 10552 10551 10549 10548 10546 10544 10542 10540 10538 10535 10532 10529 10525 10522 10520 10517 10513 10510 10508 10505 10503 10500 10497 10495 10493 10490 10488 10487 10486 10485 10482 10481 10480 10478 10477 10475 10474 10474 10475 10476 10478 10482 10485 10489 10493 10498 10503 10507 10512 10515 10519 10523 10527 10530 10540 10550 10561 10570 10576 10577 10577 10576 10578 10580 10582 10583 10586 10587 10588 10589 10590 10591 10593 10595 10595 10596 10597 10598 10600 10602 10603 10603 10604 10605 10606
10552 10550 10548 10547 10546 10545 10543 10541 10539 10537 10535 10532 10528 10525 10522 10518 10515 10513 10510 10508 10505 10503 10500 10498 10496 10494 10492 10491 10490 10490 10488 10487 10485 10484 10483 10481 10480 10480 10481 10483 10485 10487 10490 10493 10497 10501 10505 10510 10514 10518 10522 10525 10528 10532 10537 10545 10552 10560 10568 10572 10575 10577 10577 10577 10578 10581 10584 10585 10585 10585 10586 10588 10590 10592 10592 10593 10594 10596 10597 10599 10600 10600 10602 10602 10603 10604
10550 10548 10547 10546 10544 10543 10541 10540 10538 10536 10533 10531 10528 10524 10521 10518 10515 10512 10510 10508 10506 10503 10501 10499 10497 10496 10494 10493 10493 10493 10493 10492 10490 10489 10488 10486 10485 10485 10487 10488 10490 10493 10497 10500 10504 10507 10511 10515 10518 10522 10525 10529 10532 10536 10542 10548 10554 10560 10567 10571 10573 10575 10576 10575 10577 10580 10582 10582 10583 10583 10585 10588 10589 10590 10591 10592 10593 10595 10596 10597 10598 10598 10600 10600 10602 10603
10548 10547 10545 10544 10543 10541 10540 10538 10537 10535 10532 10530 10527 10524 10520 10517 10514 10512 10510 10508 10506 10504 10502 10500 10499 10498 10497 10495 10496 10497 10498 10496 10494 10493 10492 10491 10490 10491 10492 10493 10495 10498 10501 10504 10508 10512 10515 10518 10522 10525 10529 10532 10535 10539 10545 10549 10553 10560 10566 10568 10570 10571 10572 10573 10576 10578 10580 10582 10583 10585 10587 10588 10589 10590 10590 10591 10592 10593 10593 10595 10595 10597 10598 10599 10600 10601
10546 10545 10543 10542 10541 10540 10538 10537 10535 10533 10532 10529 10527 10523 10520 10517 10514 10512 10510 10508 10507 10505 10503 10502 10500 10500 10499 10498 10498 10498 10500 10498 10497 10496 10495 10495 10495 10496 10497 10498 10500 10502 10505 10507 10510 10514 10518 10522 10525 10529 10532 10535 10537 10541 10545 10549 10553 10558 10563 10565 10567 10569 10570 10573 10575 10577 10580 10582 10583 10585 10587 10588 10588 10589 10590 10590 10590 10591 10592 10592 10593 10595 10595 10597 10598 10599
10544 10543 10542 10541 10540 10538 10537 10536 10534 10533 10531 10528 10526 10523 10520 10517 10514 10512 10510 10508 10507 10505 10504 10503 10502 10502 10501 10500 10500 10502 10502 10501 10500 10499 10499 10499 10500 10501 10502 10503 10505 10506 10508 10510 10513 10516 10520 10524 10528 10532 10535 10537 10540 10543 10547 10550 10554 10558 10562 10563 10565 10568 10571 10573 10576 10578 10580 10580 10583 10585 10587 10588 10588 10588 10588 10588 10588 10589 10590 10591 10592 10593 10594 10595 10595 10596
10542 10541 10540 10539 10538 10537 10535 10534 10533 10532 10530 10528 10526 10523 10520 10517 10514 10512 10510 10508 10508 10507 10505 10505 10504 10504 10503 10503 10503 10504 10505 10504 10503 10503 10503 10503 10504 10505 10506 10507 10508 10509 10511 10513 10515 10518 10522 10527 10531 10535 10537 10540 10542 10545 10548 10552 10555 10559 10562 10564 10567 10570 10573 10575 10577 10577 10578 10580 10582 10585 10587 10587 10587 10587 10586 10586 10587 10588 10588 10589 10590 10591 10592 10592 10592 10593
10540 10539 10538 10537 10537 10535 10534 10533 10532 10531 10530 10528 10526 10523 10521 10518 10515 10512 10510 10509 10508 10508 10507 10507 10506 10506 10506 10505 10506 10507 10507 10507 10506 10506 10507 10507 10508 10508 10509 10510 10511 10512 10514 10516 10518 10520 10523 10528 10533 10538 10542 10542 10543 10546 10548 10552 10557 10560 10562 10565 10569 10573 10575 10575 10575 10575 10577 10580 10582 10583 10583 10583 10583 10583 10583 10584 10585 10585 10586 10587 10588 10588 10589 10589 10590 10590
10538 10537 10537 10535 10535 10534 10533 10532 10531 10530 10528 10527 10525 10523 10522 10519 10516 10513 10512 10510 10509 10508 10508 10508 10508 10508 10508 10508 10508 10509 10509 10509 10508 10509 10509 10510 10510 10511 10512 10512 10513 10515 10517 10518 10520 10522 10525 10528 10535 10543 10547 10550 10551 10552 10555 10558 10562 10565 10569 10571 10573 10575 10575 10573 10573 10575 10576 10578 10578 10578 10578 10578 10578 10578 10579 10580 10582 10582 10583 10584 10585 10585 10586 10587 10587 10588
10537 10535 10535 10534 10533 10532 10532 10531 10530 10529 10528 10527 10525 10523 10522 10520 10517 10515 10513 10512 10510 10510 10510 10510 10510 10511 10511 10510 10510 10511 10511 10511 10511 10511 10511 10512 10512 10513 10514 10515 10516 10518 10519 10520 10522 10523 10525 10530 10537 10545 10550 10554 10558 10560 10562 10564 10565 10568 10573 10574 10573 10572 10571 10571 10572 10572 10573 10573 10573 10574 10575 10574 10573 10573 10575 10576 10578 10579 10580 10581 10582 10582 10582 10583 10583 10584
10534 10533 10533 10532 10532 10531 10530 10530 10529 10528 10527 10526 10525 10523 10522 10520 10518 10516 10514 10513 10512 10512 10511 10512 10512 10513 10513 10513 10513 10513 10513 10513 10513 10513 10513 10513 10514 10515 10517 10518 10518 10520 10522 10523 10524 10525 10527 10531 10538 10544 10548 10550 10552 10554 10557 10558 10561 10564 10565 10565 10565 10565 10566 10568 10568 10569 10569 10570 10570 10572 10572 10572 10571 10572 10573 10575 10577 10577 10578 10578 10578 10579 10579 10580 10580 10581
10532 10532 10531 10530 10530 10530 10529 10528 10528 10527 10526 10525 10525 10523 10522 10521 10519 10517 10515 10514 10513 10513 10513 10513 10514 10515 10515 10515 10514 10514 10514 10514 10514 10514 10515 10515 10516 10517 10518 10520 10520 10522 10523 10525 10526 10528 10529 10532 10537 10542 10546 10548 10549 10550 10552 10553 10556 10558 10558 10560 10561 10563 10564 10565 10567 10567 10567 10568 10569 10570 10570 10570 10571 10572 10573 10575 10575 10576 10576 10576 10575 10575 10576 10576 10577 10578
10530 10530 10529 10528 10528 10528 10528 10527 10527 10526 10525 10525 10524 10523 10522 10521 10520 10518 10517 10515 10515 10514 10514 10514 10515 10516 10516 10516 10516 10515 10515 10515 10515 10515 10515 10516 10517 10518 10520 10521 10522 10523 10525 10526 10528 10530 10532 10534 10538 10542 10545 10549 10552 10553 10553 10553 10553 10554 10556 10558 10560 10562 10563 10564 10565 10565 10565 10566 10567 10567 10568 10569 10570 10571 10572 10573 10573 10573 10573 10573 10572 10572 10572 10573 10573 10575
10527 10527 10527 10527 10527 10526 10526 10526 10525 10525 10525 10524 10523 10523 10522 10521 10520 10518 10517 10517 10516 10515 10515 10515 10516 10517 10517 10517 10517 10516 10516 10515 10515 10515 10516 10517 10518 10519 10520 10522 10523 10525 10526 10527 10529 10532 10533 10536 10539 10542 10546 10549 10552 10553 10552 10552 10553 10553 10555 10557 10558 10560 10562 10562 10563 10563 10563 10563 10564 10565 10566 10567 10568 10569 10570 10570 10570 10569 10569 10568 10568 10568 10568 10568 10570 10571
10525 10525 10525 10524 10524 10524 10524 10524 10524 10524 10523 10523 10522 10522 10522 10521 10520 10519 10518 10517 10517 10516 10516 10517 10517 10517 10518 10518 10517 10517 10516 10516 10515 10515 10516 10517 10518 10520 10521 10522 10523 10525 10526 10527 10529 10532 10534 10536 10539 10542 10545 10548 10549 10550 10550 10552 10553 10554 10555 10556 10557 10558 10559 10560 10560 10560 10560 10560 10562 10562 10563 10564 10565 10565 10565 10564 10564 10563 10563 10563 10563 10563 10564 10565 10567 10568
10522 10522 10522 10522 10522 10522 10522 10522 10523 10523 10522 10522 10522 10521 10521 10520 10520 10519 10518 10518 10517 10517 10517 10517 10517 10518 10518 10518 10518 10517 10517 10516 10516 10516 10516 10517 10518 10520 10521 10522 10523 10525 10526 10527 10529 10532 10533 10534 10537 10540 10543 10545 10547 10548 10550 10551 10552 10553 10554 10554 10554 10554 10554 10554 10554 10555 10555 10556 10557 10558 10559 10560 10560 10559 10558 10558 10558 10558 10559 10560 10560 10560 10561 10562 10564 10566
10519 10520 10520 10519 10520 10520 10520 10520 10520 10521 10521 10521 10521 10520 10520 10520 10520 10519 10518 10518 10518 10518 10517 10518 10518 10518 10518 10518 10518 10518 10517 10517 10516 10516 10516 10517 10518 10520 10521 10522 10523 10524 10525 10527 10528 10529 10531 10532 10533 10536 10539 10542 10543 10545 10546 10547 10547 10548 10549 10550 10550 10548 10548 10548 10548 10550 10551 10552 10553 10554 10554 10555 10554 10553 10553 10553 10555 10556 10557 10557 10557 10558 10558 10560 10562 10563
10517 10517 10517 10517 10517 10517 10517 10518 10518 10519 10519 10520 10520 10519 10519 10519 10519 10518 10518 10518 10518 10518 10518 10518 10518 10518 10518 10518 10518 10518 10518 10517 10517 10516 10517 10517 10518 10520 10520 10521 10522 10523 10524 10525 10527 10528 10528 10529 10530 10532 10535 10538 10540 10542 10543 10544 10545 10546 10547 10547 10547 10547 10547 10547 10547 10547 10548 10549 10550 10550 10551 10551 10551 10551 10551 10552 10553 10553 10554 10555 10555 10556 10557 10558 10560 10562
10514 10514 10514 10514 10515 10515 10515 10515 10516 10517 10517 10518 10518 10518 10518 10518 10518 10518 10518 10518 10518 10518 10518 10518 10518 10518 10518 10518 10518 10518 10518 10517 10517 10517 10517 10517 10518 10518 10520 10520 10521 10522 10523 10524 10526 10527 10528 10528 10528 10528 10530 10533 10536 10539 10541 10542 10542 10542 10543 10543 10543 10545 10546 10547 10547 10547 10546 10547 10547 10548 10548 10548 10548 10549 10550 10550 10551 10552 10552 10553 10554 10555 10555 10557 10558 10560
10511 10511 10512 10512 10512 10512 10512 10513 10513 10514 10515 10515 10516 10516 10517 10517 10517 10517 10517 10517 10517 10517 10517 10518 10518 10518 10518 10518 10518 10518 10518 10517 10517 10517 10517 10517 10517 10518 10518 10520 10520 10520 10522 10523 10525 10526 10527 10528 10528 10528 10527 10528 10530 10532 10535 10537 10538 10539 10540 10541 10542 10542 10543 10544 10545 10545 10545 10545 10545 10545 10545 10546 10546 10546 10547 10547 10548 10550 10550 10552 10552 10553 10553 10554 10555 10557
10508 10508 10508 10509 10509 10509 10510 10510 10510 10512 10512 10513 10513 10514 10515 10515 10515 10515 10516 10516 10517 10517 10517 10517 10517 10518 10518 10518 10517 10517 10517 10517 10517 10517 10517 10517 10517 10517 10518 10518 10519 10519 10520 10522 10523 10525 10526 10527 10527 10528 10527 10527 10527 10527 10528 10530 10533 10535 10537 10538 10539 10540 10540 10541 10542 10542 10542 10542 10543 10543 10543 10544 10543 10543 10544 10545 10547 10547 10548 10550 10550 10551 10552 10552 10553 10555
10506 10506 10506 10506 10507 10507 10507 10507 10508 10508 10510 10510 10511 10512 10513 10513 10513 10514 10515 10515 10515 10515 10516 10516 10517 10517 10517 10517 10517 10517 10517 10517 10517 10517 10517 10516 10517 10517 10517 10517 10518 10518 10519 10520 10521 10522 10523 10525 10526 10527 10527 10527 10527 10527 10527 10527 10527 10528 10530 10531 10532 10533 10535 10536 10537 10538 10538 10539 10540 10541 10542 10542 10542 10542 10543 10544 10545 10546 10547 10548 10548 10549 10550 10550 10551 10552
10503 10503 10503 10503 10503 10504 10504 10505 10505 10506 10507 10507 10508 10509 10510 10511 10512 10512 10513 10513 10514 10514 10515 10515 10515 10515 10516 10516 10516 10516 10516 10516 10516 10516 10516 10516 10516 10517 10517 10517 10517 10517 10518 10518 10520 10520 10521 10522 10523 10525 10525 10526 10526 10527 10527 10527 10526 10526 10527 10527 10527 10528 10528 10530 10531 10532 10533 10534 10535 10537 10538 10538 10540 10540 10541 10542 10543 10543 10545 10545 10546 10547 10547 10548 10548 10549
10500 10500 10500 10500 10501 10501 10501 10502 10502 10503 10503 10505 10505 10507 10507 10508 10509 10510 10510 10511 10512 10512 10512 10513 10513 10513 10514 10514 10515 10515 10515 10515 10515 10515 10515 10515 10516 10516 10516 10516 10516 10516 10517 10517 10518 10519 10520 10520 10521 10522 10523 10523 10524 10525 10525 10525 10525 10526 10526 10526 10526 10526 10526 10527 10527 10528 10528 10529 10530 10532 10533 10534 10535 10537 10538 10538 10539 10540 10541 10542 10542 10543 10543 10544 10545 10545
10497 10497 10497 10497 10498 10498 10498 10498 10499 10500 10500 10502 10502 10503 10504 10505 10506 10507 10507 10508 10509 10510 10510 10511 10512 10512 10512 10512 10513 10513 10513 10513 10514 10514 10514 10515 10515 10515 10515 10515 10515 10515 10515 10516 10517 10517 10518 10518 10519 10520 10520 10521 10522 10522 10523 10523 10523 10524 10524 10524 10524 10525 10525 10525 10525 10526 10527 10527 10527 10528 10529 10530 10531 10532 10533 10534 10535 10536 10537 10537 10538 10539 10540 10540 10541 10542
10493 10494 10494 10494 10495 10495 10495 10495 10496 10497 10497 10498 10499 10500 10501 10502 10503 10503 10505 10505 10507 10507 10508 10508 10509 10510 10510 10510 10510 10510 10511 10512 10512 10512 10513 10513 10513 10513 10513 10514 10515 10515 10515 10515 10515 10515 10516 10517 10517 10517 10518 10518 10519 10519 10520 10520 10521 10521 10522 10522 10522 10522 10523 10523 10524 10524 10525 10525 10526 10527 10527 10528 10529 10530 10530 10531 10532 10532 10533 10533 10534 10535 10536 10537 10538 10538
10490 10491 10491 10491 10491 10492 10492 10492 10492 10493 10494 10495 10495 10497 10498 10498 10500 10500 10502 10503 10503 10505 10505 10506 10507 10507 10507 10507 10508 10508 10508 10508 10509 10510 10510 10511 10511 10511 10512 10512 10513 10513 10513 10513 10513 10514 10515 10515 10515 10515 10516 10516 10517 10517 10517 10518 10518 10518 10518 10519 10519 10520 10520 10521 10522 10522 10523 10523 10524 10525 10526 10527 10527 10528 10528 10528 10529 10530 10530 10531 10532 10533 10533 10534 10535 10536
10487 10487 10487 10488 10488 10488 10488 10488 10489 10490 10490 10491 10492 10493 10494 10495 10496 10497 10498 10499 10500 10501 10502 10503 10503 10504 10505 10505 10505 10505 10506 10506 10507 10507 10508 10508 10508 10508 10510 10510 10510 10511 10512 10512 10512 10512 10513 10513 10513 10513 10514 10514 10514 10515 10515 10515 10516 10516 10516 10517 10517 10517 10518 10518 10519 10520 10520 10521 10522 10523 10523 10524 10525 10526 10527 10527 10527 10528 10529 10530 10530 10532 10532 10533 10533 10535
10483 10483 10484 10484 10484 10485 10485 10485 10485 10486 10487 10487 10488 10489 10490 10492 10492 10493 10495 10496 10497 10497 10498 10500 10500 10501 10502 10502 10502 10503 10503 10503 10504 10505 10505 10505 10505 10506 10507 10507 10508 10508 10509 10509 10510 10510 10510 10510 10511 10512 10512 10512 10512 10512 10513 10513 10513 10513 10513 10514 10514 10515 10515 10515 10516 10517 10517 10518 10519 10520 10521 10522 10523 10523 10524 10525 10526 10527 10527 10528 10529 10530 10531 10532 10532 10533
10480 10480 10480 10480 10481 10481 10481 10481 10482 10482 10483 10483 10484 10485 10486 10487 10488 10490 10491 10492 10493 10493 10495 10496 10497 10498 10498 10498 10499 10499 10500 10500 10501 10502 10502 10502 10502 10503 10504 10504 10505 10505 10506 10507 10507 10507 10507 10508 10508 10508 10509 10510 10510 10510 10510 10510 10510 10511 10511 10511 10512 10512 10512 10513 10513 10513 10514 10515 10516 10517 10518 10518 10520 10521 10522 10522 10523 10524 10525 10526 10527 10528 10528 10529 10530 10530
10476 10476 10477 10477 10477 10477 10477 10477 10478 10478 10478 10479 10480 10481 10482 10483 10484 10485 10487 10488 10489 10490 10491 10492 10493 10494 10495 10495 10496 10496 10497 10497 10498 10499 10499 10499 10500 10500 10501 10501 10502 10502 10503 10503 10503 10504 10504 10505 10505 10505 10506 10507 10507 10507 10507 10507 10508 10508 10508 10508 10508 10509 10509 10510 10510 10511 10512 10512 10513 10513 10515 10516 10517 10518 10518 10520 10520 10521 10522 10523 10523 10525 10525 10526 10527 10527
10472 10472 10472 10473 10473 10473 10473 10473 10473 10474 10475 10475 10476 10477 10478 10478 10480 10481 10482 10483 10485 10486 10487 10488 10488 10490 10491 10492 10492 10493 10493 10495 10495 10496 10496 10496 10497 10497 10497 10498 10498 10499 10500 10500 10500 10501 10502 10502 10502 10503 10503 10503 10504 10504 10504 10505 10505 10505 10505 10505 10505 10506 10506 10507 10507 10508 10508 10509 10510 10510 10512 10513 10513 10515 10516 10517 10517 10518 10519 10520 10520 10521 10522 10523 10523 10523
10468 10468 10468 10469 10469 10469 10469 10470 10470 10470 10470 10471 10472 10472 10473 10474 10475 10477 10478 10479 10480 10482 10483 10483 10485 10486 10487 10488 10488 10490 10490 10491 10492 10493 10493 10493 10493 10494 10495 10495 10495 10496 10496 10497 10497 10497 10498 10498 10499 10499 10500 10500 10500 10501 10501 10502 10502 10502 10502 10502 10503 10503 10503 10503 10504 10505 10505 10506 10507 10507 10508 10509 10510 10512 10512 10513 10514 10515 10515 10516 10517 10518 10518 10519 10520 10520
10464 10464 10465 10465 10465 10465 10465 10465 10465 10466 10466 10467 10467 10468 10469 10470 10470 10472 10473 10474 10476 10477 10478 10480 10480 10482 10483 10484 10485 10486 10487 10488 10488 10490 10490 10490 10490 10491 10492 10492 10492 10493 10493 10493 10493 10494 10494 10495 10495 10496 10496 10497 10497 10497 10498 10498 10498 10499 10499 10499 10500 10500 10500 10500 10501 10502 10502 10503 10503 10504 10505 10506 10507 10508 10508 10510 10510 10511 10512 10513 10513 10514 10515 10516 10517 10517
10460 10460 10460 10461 10461 10461 10461 10461 10462 10462 10462 10463 10463 10464 10465 10465 10466 10467 10468 10470 10471 10472 10474 10475 10476 10477 10478 10480 10481 10482 10483 10484 10485 10486 10487 10487 10488 10488 10488 10488 10489 10490 10490 10490 10490 10491 10491 10492 10492 10492 10493 10493 10493 10493 10494 10495 10495 10495 10495 10496 10496 10497 10497 10497 10498 10498 10499 10500 10500 10501 10502 10503 10504 10505 10505 10506 10507 10507 10508 10509 10510 10510 10512 10512 10513 10513
10455 10455 10456 10456 10457 10457 10457 10457 10457 10457 10458 10458 10459 10460 10460 10461 10462 10463 10463 10465 10466 10468 10469 10470 10472 10473 10474 10475 10477 10478 10479 10480 10482 10482 10483 10483 10484 10485 10485 10485 10486 10487 10487 10487 10487 10488 10488 10488 10488 10489 10489 10490 10490 10490 10490 10491 10492 10492 10492 10492 10493 10493 10493 10494 10495 10495 10496 10496 10497 10498 10498 10500 10500 10501 10502 10502 10503 10504 10505 10505 10506 10507 10508 10508 10509 10510
10451 10451 10452 10452 10452 10452 10452 10453 10453 10453 10453 10454 10455 10455 10456 10457 10457 10458 10459 10460 10462 10463 10464 10465 10467 10468 10470 10470 10472 10473 10475 10476 10477 10478 10479 10480 10481 10482 10482 10482 10483 10483 10483 10484 10484 10485 10485 10485 10485 10485 10486 10486 10487 10487 10488 10488 10488 10488 10488 10489 10490 10490 10490 10491 10492 10492 10492 10493 10493 10494 10495 10496 10497 10497 10498 10498 10499 10500 10500 10501 10502 10503 10504 10505 10505 10506
10447 10447 10447 10447 10447 10448 10448 10448 10448 10449 10450 10450 10450 10451 10452 10452 10453 10454 10455 10456 10457 10458 10460 10461 10462 10463 10465 10466 10467 10468 10470 10471 10473 10474 10475 10477 10477 10478 10478 10478 10479 10480 10480 10480 10481 10481 10481 10482 10482 10482 10482 10483 10483 10484 10484 10485 10485 10485 10486 10487 10487 10487 10487 10487 10488 10488 10489 10490 10490 10490 10491 10492 10493 10493 10494 10495 10495 10496 10497 10497 10498 10499 10500 10501 10502 10502
10443 10443 10443 10443 10443 10443 10443 10444 10444 10445 10445 10445 10446 10447 10447 10448 10448 10450 10450 10452 10453 10453 10455 10456 10457 10458 10460 10461 10462 10463 10465 10467 10468 10469 10470 10472 10472 10473 10474 10474 10475 10475 10476 10476 10477 10477 10477 10478 10478 10478 10479 10480 10480 10480 10481 10482 10482 10482 10483 10483 10483 10483 10483 10484 10485 10485 10485 10486 10487 10487 10488 10488 10489 10490 10490 10491 10492 10492 10492 10493 10494 10495 10496 10497 10498 10498
10439 10438 10438 10438 10439 10439 10439 10440 10440 10441 10441 10442 10442 10442 10443 10443 10445 10445 10446 10447 10448 10449 10450 10452 10452 10453 10455 10456 10457 10459 10460 10462 10462 10463 10465 10466 10467 10468 10468 10469 10470 10470 10471 10472 10472 10473 10473 10474 10474 10475 10475 10476 10477 10477 10478 10478 10478 10479 10480 10479 10479 10480 10480 10481 10482 10482 10482 10482 10483 10483 10484 10485 10485 10486 10487 10487 10487 10488 10488 10489 10490 10491 10492 10492 10493 10494
10435 10434 10434 10434 10435 10435 10435 10436 10436 10437 10437 10437 10438 10438 10439 10440 10440 10441 10442 10443 10443 10445 10446 10447 10448 10449 10450 10451 10452 10453 10455 10456 10457 10458 10458 10459 10460 10462 10462 10463 10464 10465 10466 10467 10467 10468 10468 10470 10470 10471 10472 10472 10473 10473 10474 10474 10475 10475 10476 10476 10476 10477 10477 10477 10477 10478 10478 10479 10479 10480 10480 10481 10481 10482 10482 10483 10483 10484 10485 10485 10486 10487 10487 10488 10489 10490
10430 10430 10430 10430 10430 10430 10431 10431 10432 10432 10433 10433 10434 10435 10435 10436 10437 10437 10438 10438 10439 10440 10442 10442 10443 10444 10445 10446 10447 10448 10449 10450 10451 10452 10452 10453 10454 10455 10456 10457 10458 10460 10460 10462 10462 10463 10464 10465 10466 10467 10467 10468 10469 10470 10470 10470 10471 10472 10472 10472 10473 10473 10473 10472 10473 10474 10475 10475 10475 10476 10477 10477 10477 10478 10478 10479 10480 10480 10480 10481 10482 10482 10483 10483 10485 10485
10425 10425 10425 10425 10425 10425 10426 10427 10428 10428 10429 10430 10430 10431 10432 10432 10433 10433 10434 10435 10435 10436 10437 10438 10438 10440 10440 10441 10442 10443 10443 10444 10445 10446 10447 10448 10448 10450 10451 10452 10453 10454 10455 10457 10457 10458 10459 10460 10461 10462 10463 10464 10465 10465 10465 10466 10467 10467 10468 10468 10468 10469 10468 10468 10470 10470 10471 10471 10471 10472 10472 10473 10473 10474 10474 10475 10475 10475 10476 10477 10477 10478 10478 10479 10480 10480
10420 10420 10420 10420 10420 10420 10422 10422 10423 10424 10425 10426 10427 10427 10428 10428 10429 10430 10430 10430 10431 10432 10433 10433 10434 10435 10435 10436 10437 10438 10438 10439 10440 10441 10442 10443 10444 10445 10446 10447 10448 10449 10450 10452 10453 10453 10455 10455 10456 10457 10458 10459 10460 10460 10461 10462 10462 10462 10463 10463 10464 10465 10465 10465 10465 10466 10466 10467 10467 10467 10468 10468 10469 10470 10470 10470 10470 10471 10472 10473 10473 10473 10474 10475 10475 10476
10415 10415 10415 10415 10415 10416 10417 10418 10419 10420 10421 10422 10423 10423 10424 10425 10425 10425 10426 10427 10427 10428 10428 10429 10430 10430 10430 10432 10432 10433 10434 10435 10436 10437 10438 10439 10440 10441 10442 10443 10443 10445 10446 10447 10448 10449 10450 10451 10452 10453 10453 10454 10455 10455 10456 10457 10457 10458 10458 10458 10459 10460 10460 10460 10461 10461 10462 10462 10462 10463 10463 10464 10465 10465 10465 10465 10466 10467 10467 10468 10469 10470 10470 10471 10472 10472
10411 10410 10410 10410 10410 10412 10412 10413 10415 10416 10417 10418 10419 10420 10420 10421 10422 10422 10422 10422 10423 10423 10424 10425 10425 10425 10427 10427 10428 10429 10430 10431 10432 10433 10434 10435 10436 10437 10438 10438 10439 10440 10441 10442 10443 10444 10445 10446 10447 10448 10448 10449 10450 10450 10451 10452 10452 10453 10453 10453 10454 10455 10455 10455 10456 10457 10457 10458 10458 10458 10459 10460 10460 10460 10460 10461 10462 10462 10463 10463 10464 10465 10466 10467 10467 10468
10406 10405 10405 10405 10406 10407 10408 10410 10411 10412 10413 10414 10415 10415 10416 10417 10417 10418 10418 10418 10418 10419 10420 10420 10421 10422 10422 10423 10424 10425 10426 10427 10428 10429 10430 10431 10432 10433 10433 10434 10435 10435 10436 10437 10438 10439 10440 10441 10442 10443 10443 10444 10445 10445 10445 10447 10447 10448 10448 10448 10450 10450 10450 10450 10451 10452 10453 10453 10453 10453 10454 10455 10455 10455 10455 10456 10457 10457 10458 10458 10460 10461 10462 10462 10463 10463
10401 10401 10401 10401 10402 10403 10404 10405 10407 10408 10409 10410 10410 10412 10412 10413 10413 10413 10414 10414 10415 10415 10415 10416 10417 10418 10418 10420 10420 10422 10422 10423 10423 10425 10425 10427 10427 10428 10428 10429 10430 10431 10432 10432 10433 10434 10435 10435 10437 10437 10438 10439 10440 10440 10440 10441 10442 10443 10443 10444 10444 10445 10445 10446 10447 10447 10448 10448 10448 10448 10449 10450 10450 10450 10451 10452 10452 10452 10453 10454 10455 10456 10457 10458 10459 10460
10397 10397 10397 10397 10398 10398 10400 10401 10402 10403 10405 10405 10407 10407 10408 10408 10408 10409 10410 10410 10410 10411 10412 10412 10413 10414 10415 10416 10417 10418 10418 10419 10420 10420 10421 10422 10423 10423 10424 10425 10425 10426 10427 10427 10428 10428 10430 10430 10431 10432 10433 10434 10435 10435 10435 10436 10437 10438 10438 10438 10439 10440 10440 10441 10442 10442 10443 10443 10443 10443 10444 10445 10445 10445 10446 10447 10447 10447 10448 10449 10450 10451 10452 10453 10455 10455